Probability
0 0 0 0 0 0 0 0 0 0 0 0 0 0 0 0 0 0 0 0 0 0 0 0 0 0 0 0 0 0 0 0 0 0 0 0 0 0
0 0 0 0 0 0 0 0 0 0 0 0 0 0 0 0 0 0 0 0 0 0 0 0 0 0 0 0 0 0 0 0 0 0 0 0 0 0
0 0 0 0 0 0 0 0 0 0 0 0 0 0 0 0 0 0 0 0 0 0 0 0 0 0 0 0 0 0 0 0 0 0 0 0 0 0
0 0 0 0 0 0 0 0 0 0 0 0 0 0 0 0 0 0 0 0 0 0 0 0 0 0 0 0 0 0 0 0 0 0 0 0 0 0
0 0 0 0 0 0 0 0 0 0 0 0 0 0 0 0 0 0 0 0 0 0 0 0 0 0 0 0 0 0 0 0 0 0 0 0 0 0
0 0 0 0 0 0 0 0 0 0 0 0 0 0 0 0 0 0 0 0 0 0 0 0 0 0 0 0 0 0 0 0 0 0 0 0 0 0
0 0 0 0 0 0 0 0 0 0 0 0 0 0 0 0 0 0 0 0 0 0 0 0 0 0 0 0 0 0 0 0 0 0 0 0 0 0
0 0 0 0 0 0 0 0 0 0 0 0 0 0 0 0 0 0 0 0 0 0 0 0 0 0 0 0 0 0 0 0 0 0 0 0 0 0
0 0 0 0 0 0 0 0 0 0 0 0 0 0 0 0 0 0 0 0 0 0 0 0 0 0 0 0 0 0 0 0 0 0 0 0 0 0
0 0 0 0 0 0 0 0 0 0 0 0 0 0 0 0 0 0 0 0 0 0 0 0 0 0 0 0 0 0 0 0 0 0 0 0 0 0
0 0 0 0 0 0 0 0 0 0 0 0 0 0 0 0 0 0 0 0 0 0 0 0 0 0 0 0 0 0 0 0 0 0 0 0 0 0
0 0 0 0 0 0 0 0 0 0 0 0 0 0 0 0 0 0 0 0 0 0 0 0 0 0 0 0 0 0 0 0 0 0 0 0 0 0
0 0 0 0 0 0 0 0 0 0 0 0 0 0 0 0 0 0 0 0 0 0 0 0 0 0 0 0 0 0 0 0 0 0 0 0 0 0
0 0 0 0 0 0 0 0 0 0 0 0 0 0 0 0 0 0 0 0 0 0 0 0 0 0 0 0 0 0 0 0 0 0 0 0 0 0
0 0 0 0 0 0 0 0 0 0 0 0 0 0 0 0 0 0 0 0 0 0 0 0 0 0 0 0 0 0 0 0 0 0 0 0 0 0
0 0 0 0 0 0 0 0 0 0 0 0 0 0 0 0 0 0 0 0 0 0 0 0 0 0 0 0 0 0 0 0 0 0 0 0 0 0
0 0 0 0 0 0 0 0 0 0 0 0 0 0 0 0 0 0 0 0 0 0 0 0 0 0 0 0 0 0 0 0 0 0 0 0 0 0
0 0 0 0 0 0 0 0 0 0 0 0 0 0 0 0 0 0 0 0 0 0 0 0 0 0 0 0 0 0 0 0 0 0 0 0 0 0
0 0 0 0 0 0 0 0 0 0 0 0 0 0 0 0 0 0 0 0 0 0 0 0 0 0 0 0 0 0 0 0 0 0 0 0 0 0
0 0 0 0 0 0 0 0 0 0 0 0 0 0 0 0 0 0 0 0 0 0 0 0 0 0 0 0 0 0 0 0 0 0 0 0 0 0
0 0 0 0 0 0 0 0 0 0 0 0 0 0 0 0 0 0 0 0 0 0 0 0 0 0 0 0 0 0 0 0 0 0 0 0 0 0
0 0 0 0 0 0 0 0 0 0 0 0 0 0 0 0 0 0 0 0 0 0 0 0 0 0 0 0 0 0 0 0 0 0 0 0 0 0
0 0 0 0 0 0 0 0 0 0 0 0 0 0 0 0 0 0 0 0 0 0 0 0 0 0 0 0 0 0 0 0 0 0 0 0 0 0
Wind_Speed
5 5 5 4 4 4 4 4 5 5 5 4 3 3 2 3 3 4 5 4 5 6 7 6 6 6 7 7 8 9 9 9 10 11 11 12 12 13
4 5 5 4 4 4 4 4 5 6 5 3 3 3 3 3 3 5 4 4 6 6 6 6 6 6 7 7 8 8 8 9 10 11 12 13 13 13
5 6 6 6 5 4 4 5 5 5 7 5 3 3 5 4 3 4 4 4 4 4 5 5 6 6 7 7 8 8 8 9 10 11 11 12 13 14
7 7 7 5 6 5 5 5 5 5 6 7 4 4 5 4 4 4 4 3 4 4 5 6 6 7 7 7 7 8 8 9 9 10 11 12 13 13
7 7 7 7 7 6 6 6 5 5 5 6 5 3 3 3 4 4 4 4 4 3 5 6 6 7 7 7 8 8 8 9 9 10 11 11 12 13
7 7 8 8 8 8 7 7 6 6 6 6 5 4 4 3 4 4 4 3 3 3 4 4 5 6 6 7 7 8 8 9 9 10 11 11 11 12
7 8 8 8 8 8 6 7 6 6 5 5 5 5 4 3 4 3 4 3 4 3 3 3 3 3 3 5 6 6 7 8 9 10 10 11 11 12
8 8 8 8 9 11 11 11 9 8 7 6 6 6 6 5 4 3 3 3 3 1 3 4 3 3 3 3 5 6 7 8 8 9 10 10 11 12
8 7 6 6 8 8 9 11 11 12 12 9 8 8 7 5 5 5 5 5 4 2 3 4 3 4 3 4 6 7 7 8 8 9 10 10 11 12
8 8 8 8 7 7 8 8 8 9 9 9 8 8 6 5 5 5 4 4 4 3 3 4 3 4 4 4 4 6 6 7 8 9 10 10 11 12
8 8 9 9 9 9 8 8 8 7 7 8 8 7 6 5 5 3 3 3 3 3 2 3 3 3 4 4 3 5 6 7 8 9 10 10 11 11
7 7 10 11 10 10 9 8 9 8 6 6 7 6 6 6 7 5 4 4 3 3 2 3 2 2 3 3 3 3 4 5 8 9 10 10 11 7
6 6 6 10 12 12 10 9 9 7 5 5 5 4 4 3 3 3 3 4 4 4 2 2 2 2 3 3 3 3 3 4 5 6 8 9 10 8
7 6 6 9 10 11 10 9 10 8 4 4 4 4 4 3 3 3 3 3 3 4 4 3 3 3 3 4 4 3 3 4 4 5 5 7 8 8
7 8 9 10 10 9 10 11 8 6 5 4 5 4 3 3 2 2 2 3 3 4 4 4 4 4 4 4 4 4 4 4 4 5 5 5 5 5
7 8 10 11 9 8 7 7 6 5 5 5 4 3 2 2 3 3 3 2 2 3 3 4 5 5 5 5 5 5 4 4 4 5 6 6 5 5
6 5 5 5 6 5 5 5 4 4 5 4 4 3 3 3 3 3 2 3 3 3 2 2 3 4 5 5 5 5 5 5 5 5 5 6 5 5
8 6 6 6 6 6 5 5 5 5 5 4 4 4 4 4 4 3 3 3 4 4 3 2 2 2 3 4 6 6 5 5 5 5 5 6 6 5
8 7 7 7 6 6 5 5 5 5 4 5 5 5 4 4 4 4 4 4 4 4 3 3 3 3 4 4 3 6 5 4 5 5 5 5 7 7
7 7 7 7 6 6 6 5 5 4 5 5 5 5 5 5 5 5 5 5 4 4 4 3 4 4 4 4 3 3 5 5 5 5 5 5 6 8
7 7 6 6 6 6 6 5 5 5 5 5 5 6 5 5 5 5 5 6 5 4 5 4 3 3 2 2 3 4 3 4 5 5 5 5 6 5
6 7 6 6 6 6 6 5 5 5 6 6 5 5 5 5 6 6 5 5 5 4 4 2 2 2 3 4 5 4 4 4 4 7 8 7 5 4
6 6 6 6 6 5 5 6 7 6 6 6 6 6 6 5 5 5 5 5 4 4 3 2 2 2 3 4 4 4 5 5 4 4 4 5 9 12
Wind_Direction
250 250 253 256 255 254 251 250 260 274 271 259 253 238 259 272 275 268 272 264 267 274 277 281 282 286 289 287 288 290 292 291 287 286 287 288 288 288
248 250 252 252 250 247 246 248 250 260 270 268 263 269 267 266 271 275 275 268 255 266 274 277 279 282 285 286 287 290 293 294 292 287 286 287 288 288
248 249 252 253 253 249 246 243 244 249 261 268 268 274 270 268 267 272 273 269 262 258 270 274 279 281 282 284 285 286 287 290 292 292 293 293 293 290
252 250 250 249 248 251 248 244 243 245 256 266 263 262 266 272 275 276 277 273 274 268 269 269 277 280 282 284 284 285 287 290 292 294 294 294 296 295
254 251 251 249 248 245 246 246 244 245 249 260 265 261 260 260 271 271 271 272 275 275 262 261 270 275 280 281 281 282 285 286 289 292 294 297 299 299
253 252 252 249 250 249 245 245 244 244 245 251 257 258 257 259 262 267 269 266 271 276 264 267 266 268 272 277 279 282 284 285 288 292 295 298 300 300
254 252 251 251 254 253 249 247 242 242 243 246 251 252 248 247 249 254 262 280 276 265 276 274 273 274 274 270 275 283 284 288 292 296 297 299 302 302
256 256 254 247 246 247 247 248 245 243 242 243 248 249 250 246 248 249 263 273 269 243 277 279 273 275 281 278 288 285 283 289 294 297 299 300 301 301
255 257 255 249 245 247 243 241 241 241 244 247 250 252 257 248 242 240 242 255 264 280 278 274 270 272 280 284 287 283 283 289 294 298 300 301 302 301
253 253 255 255 248 247 249 247 246 242 239 241 248 255 258 254 241 247 255 264 276 263 257 265 273 278 288 281 277 280 286 291 296 300 304 305 306 303
255 253 253 255 250 245 248 249 251 249 239 236 248 252 254 246 235 229 224 240 258 246 227 256 278 291 284 273 273 278 284 293 296 299 304 306 306 302
256 252 247 250 253 245 246 246 249 250 242 236 236 237 239 230 215 223 224 231 245 251 208 233 258 283 286 268 283 288 283 291 299 300 305 308 311 303
257 253 248 246 250 248 247 247 247 249 239 234 235 234 232 227 217 224 231 231 236 242 207 212 246 253 260 282 281 282 290 296 299 298 300 305 307 302
258 256 253 251 254 251 247 246 244 239 232 224 229 230 225 223 223 225 231 240 248 252 246 225 233 240 256 270 272 282 288 289 295 299 302 304 300 297
258 256 259 257 254 251 244 239 232 228 220 222 226 229 225 220 209 212 223 231 251 254 247 243 239 242 249 257 270 281 291 289 290 295 297 296 298 300
255 255 252 251 246 245 239 231 227 225 221 226 228 221 204 201 211 213 220 223 247 255 233 237 240 238 248 254 259 269 276 281 292 296 296 292 292 290
257 253 249 244 240 233 228 224 220 217 218 216 214 212 208 208 215 211 220 225 238 249 248 237 241 245 250 254 258 260 270 276 281 295 296 295 293 291
253 245 243 240 238 233 226 223 220 220 217 211 212 212 212 213 214 211 216 225 236 243 245 243 245 251 246 243 233 256 267 275 285 289 288 290 292 297
247 243 241 239 236 231 224 222 222 217 212 209 212 211 211 212 212 215 216 224 233 238 238 231 228 237 255 268 234 216 253 279 288 289 287 285 286 294
240 240 237 235 232 228 224 220 217 211 210 213 212 209 208 210 214 216 217 224 231 236 236 228 227 234 248 268 278 259 240 260 281 287 292 294 286 286
240 239 236 233 230 225 221 216 213 212 211 209 211 209 206 208 215 215 217 219 228 232 237 239 232 233 252 257 261 263 261 247 259 272 289 296 298 296
242 240 237 233 229 224 218 212 210 210 207 209 209 208 206 208 214 214 215 217 223 229 239 243 215 214 229 242 259 274 286 296 281 266 260 260 276 290
242 241 239 235 230 224 216 210 209 210 208 207 207 206 204 206 209 211 212 217 218 218 220 227 228 229 238 244 258 272 285 297 299 300 289 278 271 273